Change the Weather History Date:

Monday, November 14, 2011

  Actual Average Record
Temperature  
Mean Temperature 42 °F 36 °F  
Max Temperature 54 °F 50 °F 74 °F (1999)
Min Temperature 29 °F 23 °F -3 °F (2000)
Degree Days  
Heating Degree Days 23 28  
Month to date heating degree days 405 357  
Since 1 July heating degree days 999 1067  
Cooling Degree Days 0 0  
Month to date cooling degree days 0 0  
Year to date cooling degree days 843 678  
Moisture  
Dew Point 15 °F    
Average Humidity 38    
Maximum Humidity 59    
Minimum Humidity 16    
Precipitation  
Precipitation 0.00 in 0.01 in 0.08 in (2005)
Month to date precipitation 0.12 0.26  
Year to date precipitation 16.32 13.66  
Sea Level Pressure  
Sea Level Pressure 29.59 in    
Wind  
Wind Speed 19 mph (West)    
Max Wind Speed 41 mph    
Max Gust Speed 54 mph    
Visibility 10 miles    
Events      
T = Trace of Precipitation, MM = Missing Value Source: NWS Daily Summary

Daily Weather History Graph

Daily Weather History Graph

Search for Another Location

Airport or City:

Trip Planner

Search our weather history database for the weather conditions in past years. The results will help you decide how hot, cold, wet, or windy it might be!

Date:

Astronomy

Nov. 14, 2011 Rise Set
Actual Time 6:45 AM MST 4:36 PM MST
Civil Twilight 6:15 AM MST 5:06 PM MST
Nautical Twilight 5:41 AM MST 5:40 PM MST
Astronomical Twilight 5:08 AM MST 6:13 PM MST
Moon 7:44 PM MST (11/14) 10:06 AM MST (11/14)
Length of Visible Light 10h 51m
Length of Day
9h 51m
Waning Gibbous, 86% of the Moon is Illuminated
Nov 14
Waning Gibbous
Nov 18
Last Quarter
Nov 24
New
Dec 2
First Quarter
Dec 10
Full

Hourly Weather History & Observations

Time (MST) Temp. Windchill Dew Point Humidity Pressure Visibility Wind Dir Wind Speed Gust Speed Precip Events Conditions
12:53 AM 39.0 °F 29.0 °F 19.9 °F 46% 29.57 in 10.0 mi West 20.7 mph 31.1 mph N/A   Clear
1:53 AM 37.9 °F 30.5 °F 19.0 °F 47% 29.59 in 10.0 mi West 11.5 mph - N/A   Clear
3:53 AM 32.0 °F 25.6 °F 19.0 °F 59% 29.62 in 10.0 mi WNW 6.9 mph - N/A   Clear
4:53 AM 30.9 °F 23.5 °F 18.0 °F 59% 29.65 in 10.0 mi WNW 8.1 mph - N/A   Clear
5:53 AM 30.0 °F 25.2 °F 17.1 °F 59% 29.65 in 10.0 mi West 4.6 mph - N/A   Clear
6:53 AM 30.0 °F 23.2 °F 17.1 °F 59% 29.66 in 10.0 mi WSW 6.9 mph - N/A   Clear
7:53 AM 37.0 °F 29.3 °F 17.1 °F 44% 29.64 in 10.0 mi West 11.5 mph - N/A   Clear
8:53 AM 45.0 °F 36.0 °F 16.0 °F 31% 29.62 in 10.0 mi West 25.3 mph 34.5 mph N/A   Clear
9:53 AM 48.9 °F - 14.0 °F 25% 29.60 in 10.0 mi West 33.4 mph 47.2 mph N/A   Clear
10:53 AM 50.0 °F - 12.9 °F 23% 29.60 in 10.0 mi West 25.3 mph 38.0 mph N/A   Clear
11:53 AM 52.0 °F - 12.9 °F 21% 29.56 in 10.0 mi West 26.5 mph 42.6 mph N/A   Clear
12:53 PM 52.0 °F - 10.9 °F 19% 29.51 in 10.0 mi West 26.5 mph 40.3 mph N/A   Clear
1:53 PM 53.1 °F - 9.0 °F 17% 29.49 in 10.0 mi West 36.8 mph 54.1 mph N/A   Clear
2:53 PM 52.0 °F - 10.9 °F 19% 29.50 in 10.0 mi West 29.9 mph 46.0 mph N/A   Clear
3:53 PM 51.1 °F - 10.9 °F 20% 29.51 in 10.0 mi West 26.5 mph 46.0 mph N/A   Clear
4:53 PM 48.0 °F - 12.9 °F 24% 29.53 in 10.0 mi West 27.6 mph 41.4 mph N/A   Clear
6:53 PM 45.0 °F 37.6 °F 14.0 °F 29% 29.60 in 10.0 mi West 17.3 mph 29.9 mph N/A   Clear
7:53 PM 42.1 °F 33.6 °F 14.0 °F 32% 29.61 in 10.0 mi West 18.4 mph 23.0 mph N/A   Clear
8:53 PM 41.0 °F 33.5 °F 12.9 °F 32% 29.61 in 10.0 mi West 13.8 mph - N/A   Clear
9:53 PM 39.9 °F 31.8 °F 14.0 °F 35% 29.62 in 10.0 mi West 15.0 mph 21.9 mph N/A   Clear
10:53 PM 37.9 °F 30.9 °F 16.0 °F 41% 29.62 in 10.0 mi West 10.4 mph - N/A   Clear
11:53 PM 39.0 °F 33.4 °F 16.0 °F 39% 29.61 in 10.0 mi West 8.1 mph - N/A   Clear